| time (UTC) | temp C | wind direction | speed KPH | gust KPH | rain 1hr cm | rain 24hr cm | rain mn cm | humidity % | barometer mb |
| 20260508100307 | 8 | 240 | 4.8 | 0.0 | 0.00 | 0.00 | 0.00 | 45 | 1022.0 |
| 20260508093307 | 8 | 0 | 8.0 | 0.0 | 0.00 | 0.00 | 0.00 | 42 | 1022.0 |
| 20260508090307 | 7 | 0 | 4.8 | 0.0 | 0.00 | 0.00 | 0.00 | 45 | 1022.0 |
| 20260508083307 | 7 | 100 | 8.0 | 0.0 | 0.00 | 0.00 | 0.00 | 45 | 1022.0 |
| 20260508080306 | 6 | 90 | 8.0 | 0.0 | 0.00 | 0.00 | 0.00 | 52 | 1022.0 |
| 20260508073307 | 6 | 0 | 3.2 | 0.0 | 0.00 | 0.00 | 0.00 | 56 | 1022.0 |
| 20260508070306 | 5 | 0 | 3.2 | 0.0 | 0.00 | 0.00 | 0.00 | 70 | 1022.0 |
| 20260508063306 | 5 | 0 | 3.2 | 0.0 | 0.00 | 0.00 | 0.00 | 70 | 1022.0 |
| 20260508060306 | 5 | 0 | 3.2 | 0.0 | 0.00 | 0.00 | 0.00 | 75 | 1022.0 |
| 20260508053307 | 5 | 0 | 0.0 | 0.0 | 0.00 | 0.00 | 0.00 | 86 | 1022.0 |
| 20260508050306 | 3 | 0 | 0.0 | 0.0 | 0.00 | 0.00 | 0.00 | 86 | 1022.0 |
| 20260508043306 | 2 | 0 | 1.6 | 0.0 | 0.00 | 0.00 | 0.00 | 93 | 1022.0 |
| 20260508040307 | 2 | 0 | 1.6 | 0.0 | 0.00 | 0.00 | 0.00 | 93 | 1022.0 |
| 20260508033306 | 1 | 110 | 4.8 | 0.0 | 0.00 | 0.00 | 0.00 | 93 | 1022.0 |
| 20260508030306 | 1 | 120 | 8.0 | 0.0 | 0.00 | 0.00 | 0.00 | 93 | 1022.0 |
| 20260508023307 | 2 | 100 | 9.7 | 0.0 | 0.00 | 0.00 | 0.00 | 86 | 1022.0 |
| 20260508020307 | 3 | 200 | 19.3 | 0.0 | 0.00 | 0.00 | 0.00 | 80 | 1022.0 |
| 20260508013307 | 3 | 160 | 9.7 | 0.0 | 0.00 | 0.00 | 0.00 | 80 | 1021.0 |
| 20260508010306 | 2 | 120 | 8.0 | 0.0 | 0.00 | 0.00 | 0.00 | 86 | 1021.0 |
| 20260508003306 | 2 | 180 | 24.1 | 0.0 | 0.00 | 0.00 | 0.00 | 80 | 1021.0 |
| 20260508000306 | 3 | 180 | 16.1 | 0.0 | 0.00 | 0.00 | 0.00 | 75 | 1021.0 |
| 20260507233306 | 2 | 180 | 22.5 | 0.0 | 0.00 | 0.00 | 0.00 | 80 | 1021.0 |
| 20260507230306 | 2 | 190 | 11.3 | 0.0 | 0.00 | 0.00 | 0.00 | 86 | 1021.0 |
| 20260507223306 | 2 | 130 | 4.8 | 0.0 | 0.00 | 0.00 | 0.00 | 86 | 1020.0 |
| 20260507220306 | 2 | 270 | 11.3 | 0.0 | 0.00 | 0.00 | 0.00 | 80 | 1020.0 |
| 20260507213306 | 3 | 180 | 8.0 | 0.0 | 0.00 | 0.00 | 0.00 | 80 | 1020.0 |
| 20260507210307 | 3 | 180 | 9.7 | 0.0 | 0.00 | 0.00 | 0.00 | 80 | 1020.0 |
| 20260507203307 | 3 | 190 | 8.0 | 0.0 | 0.00 | 0.00 | 0.00 | 86 | 1019.0 |
| 20260507200305 | 5 | 230 | 11.3 | 0.0 | 0.00 | 0.00 | 0.00 | 80 | 1019.0 |
| 20260507193306 | 5 | 230 | 12.9 | 0.0 | 0.00 | 0.00 | 0.00 | 80 | 1019.0 |
| 20260507190307 | 5 | 240 | 9.7 | 0.0 | 0.00 | 0.00 | 0.00 | 75 | 1018.0 |
| 20260507183307 | 5 | 230 | 11.3 | 0.0 | 0.00 | 0.00 | 0.00 | 75 | 1018.0 |
| 20260507180310 | 5 | 230 | 12.9 | 0.0 | 0.00 | 0.00 | 0.00 | 75 | 1018.0 |
| 20260507173308 | 5 | 230 | 14.5 | 0.0 | 0.00 | 0.00 | 0.00 | 75 | 1018.0 |
| 20260507170307 | 5 | 240 | 12.9 | 0.0 | 0.00 | 0.00 | 0.00 | 70 | 1018.0 |
| 20260507163307 | 5 | 240 | 14.5 | 0.0 | 0.00 | 0.00 | 0.00 | 75 | 1017.0 |
| 20260507160308 | 5 | 240 | 12.9 | 0.0 | 0.00 | 0.00 | 0.00 | 81 | 1017.0 |
| 20260507153308 | 5 | 220 | 4.8 | 0.0 | 0.00 | 0.00 | 0.00 | 80 | 1017.0 |
| 20260507150308 | 2 | 240 | 11.3 | 0.0 | 0.00 | 0.00 | 0.00 | 86 | 1017.0 |
| 20260507143307 | 5 | 210 | 20.9 | 0.0 | 0.00 | 0.00 | 0.00 | 80 | 1017.0 |
| 20260507140308 | 5 | 210 | 22.5 | 0.0 | 0.00 | 0.00 | 0.00 | 75 | 1017.0 |
| 20260507133307 | 5 | 210 | 20.9 | 0.0 | 0.00 | 0.00 | 0.00 | 75 | 1017.0 |
| 20260507130307 | 5 | 210 | 24.1 | 0.0 | 0.00 | 0.00 | 0.00 | 81 | 1016.0 |
| 20260507123308 | 5 | 210 | 22.5 | 0.0 | 0.00 | 0.00 | 0.00 | 75 | 1016.0 |
| 20260507120307 | 5 | 210 | 19.3 | 0.0 | 0.00 | 0.00 | 0.00 | 81 | 1016.0 |
| 20260507113308 | 5 | 200 | 22.5 | 0.0 | 0.00 | 0.00 | 0.00 | 86 | 1016.0 |
| 20260507110307 | 5 | 210 | 22.5 | 0.0 | 0.00 | 0.00 | 0.00 | 93 | 1016.0 |
| 20260507103307 | 2 | 190 | 19.3 | 0.0 | 0.00 | 0.00 | 0.00 | 93 | 1016.0 |